Lid_Strength_Index
3 3 3 4 5 6 6 6 5 4 5 5 5 5 5 6 6 6 6 6 6 6 6 6 6 7 7 7 7 7 6 7
2 2 3 4 5 6 6 5 5 5 6 6 6 7 7 7 7 7 7 7 7 7 7 7 7 8 8 8 8 8 7 7
3 3 3 4 4 5 5 5 5 4 4 5 6 6 7 7 8 8 8 8 8 8 8 8 8 8 8 8 8 9 8 7
4 4 4 4 4 4 5 5 4 4 5 6 7 7 7 8 8 9 9 8 8 8 8 8 8 8 8 8 8 9 9 8
4 4 4 4 4 4 4 4 5 5 5 6 7 8 8 8 9 9 9 8 9 8 8 8 8 8 8 8 8 9 9 10
5 5 4 3 4 4 4 5 5 5 5 5 6 8 8 9 9 9 9 9 9 9 9 9 9 9 8 8 8 9 8 9
4 3 2 3 3 4 4 5 6 6 7 7 7 8 9 9 9 9 10 9 9 9 9 9 9 9 9 8 8 8 8 9
4 4 3 3 4 4 5 6 7 7 7 7 7 7 8 8 9 9 8 9 9 9 9 9 9 9 8 8 8 8 8 9
4 4 3 3 4 4 5 6 7 7 7 7 7 7 8 8 8 8 8 9 9 9 9 9 9 8 8 8 9 9 9 9
4 3 3 3 4 4 4 5 6 7 7 8 8 7 8 8 8 8 9 8 8 8 9 9 9 9 9 9 10 9 9 9
4 3 3 3 3 3 4 5 6 7 7 7 7 7 7 7 8 8 8 8 8 8 9 9 9 10 10 10 10 10 10 10
4 3 3 3 3 4 4 5 8 7 7 7 7 8 7 7 8 8 8 8 9 9 9 10 10 10 11 11 11 11 12 12
7 4 3 3 4 4 4 6 7 10 7 7 7 7 8 8 8 9 8 9 9 9 10 11 11 12 12 11 12 13 13 13
5 4 4 4 4 4 4 6 7 7 7 8 8 9 10 11 10 9 9 10 11 11 11 12 13 13 13 13 12 13 14 16
5 5 4 5 4 4 5 7 7 7 8 8 11 10 10 11 11 10 10 11 12 14 14 14 14 13 13 13 13 15 15 16
5 5 4 4 4 3 4 6 7 7 8 9 10 10 10 10 10 10 10 11 12 13 13 12 12 12 11 12 12 13 14 14
5 4 4 4 3 3 3 5 6 7 8 9 10 9 9 10 9 9 11 11 12 12 12 11 12 11 13 12 11 12 12 12
4 4 4 4 4 3 4 5 5 6 8 9 10 8 9 9 9 9 10 11 11 11 10 10 13 13 13 12 11 11 12 12
3 3 3 3 3 3 4 5 6 7 8 9 8 9 9 9 10 10 10 10 11 11 10 10 13 13 13 12 12 12 13 13